Zurück zum Katalog

THORAD AGENA D DEB

AktivSSO
NORAD 6139·DEBRIS·🇺🇸 United States

Gestartet Apr 8, 1970 von Vandenberg Space Force Base

Loading…

Nächste Überflüge (nächste 24 Stunden)

TLE

AktuellSource: Space-Track

Epoche: Sep 14, 2026, 14:07 UTC

1 06139U 70025MV  26257.58878134  .00001483  00000-0  97229-3 0  9997
2 06139  98.9043 130.3745 0069714  86.8776 274.0364 14.02385036841546

Verfolge THORAD AGENA D DEB in Echtzeit mit AllMySat

Download on the App Store